User: anonymous   Login
Location: Caltech
(34.1382°N, 118.1253°W)
Time: 00:35:37
(UTC-07:00)
Language:

Cosmos 2219 Rocket - Orbit

View from above orbital plane
View from above orbital plane
View from above satellite
View from above satellite

Ground track
Ground track

The orbit data is extracted from the following two-line orbital elements,

1 22220U 92076B   17228.49438885 -.00000011 +00000-0 +18533-4 0  9998
2 22220 071.0004 292.3072 0013078 191.3625 225.7893 14.16419886278981
Epoch (UTC): 16 August 2017 11:51:55
Eccentricity: 0.0013078
inclination: 71.0004°
perigee height: 828 km
apogee height: 847 km
right ascension of ascending node: 292.3072°
argument of perigee: 191.3625°
revolutions per day: 14.16419886
mean anomaly at epoch: 225.7893°
orbit number at epoch: 27898

The dashed part of the orbit path shows where the satellite is in the earth's shadow,  

DLR